Weather History for New River MCAS, NC

Change the Weather History Date:

Thursday, March 13, 2014

  Actual Average Record
Temperature  
Mean Temperature 41 °F -  
Max Temperature 50 °F 62 °F 80 °F (2006)
Min Temperature 30 °F 41 °F 22 °F (1998)
Degree Days  
Heating Degree Days 24    
Moisture  
Dew Point 20 °F    
Average Humidity 42    
Maximum Humidity 75    
Minimum Humidity 22    
Precipitation  
Precipitation 0.00 in - - ()
Sea Level Pressure  
Sea Level Pressure 29.96 in    
Wind  
Wind Speed 16 mph (NW)    
Max Wind Speed 28 mph    
Max Gust Speed 34 mph    
Visibility 10 miles    
Events      
Averages and records for this station are not official NWS values.
T = Trace of Precipitation, MM = Missing Value Source: NWS Daily Summary

Daily Weather History Graph

Daily Weather History Graph

Search for Another Location

Airport:

Trip Planner

Search our weather history database for the weather conditions in past years. The results will help you decide how hot, cold, wet, or windy it might be!

Date:

Astronomy

Mar. 13, 2014 Rise Set
Actual Time 7:23 AM EDT 7:15 PM EDT
Civil Twilight 6:57 AM EDT 7:40 PM EDT
Nautical Twilight 6:28 AM EDT 8:10 PM EDT
Astronomical Twilight 5:59 AM EDT 8:39 PM EDT
Moon 4:44 PM EDT (3/13) 5:23 AM EDT (3/13)
Length of Visible Light 12h 42m
Length of Day
11h 52m
Waxing Gibbous, 91% of the Moon is Illuminated
Mar 13
Waxing Gibbous
Mar 16
Full
Mar 23
Last Quarter
Mar 30
New
Apr 7
First Quarter

Hourly Weather History & Observations

Time (EDT) Temp. Windchill Dew Point Humidity Pressure Visibility Wind Dir Wind Speed Gust Speed Precip Events Conditions
12:56 AM 50.0 °F - 33.1 °F 52% 29.60 in 10.0 mi NW 18.4 mph 24.2 mph N/A   Clear
1:56 AM 46.9 °F - 28.9 °F 50% 29.64 in 10.0 mi NW 17.3 mph 26.5 mph N/A   Clear
2:56 AM 46.0 °F 37.8 °F 26.1 °F 46% 29.68 in 10.0 mi WNW 23.0 mph 33.4 mph N/A   Clear
3:56 AM 43.0 °F 36.0 °F 26.1 °F 51% 29.71 in 10.0 mi WNW 13.8 mph - N/A   Clear
4:56 AM 42.1 °F 35.2 °F 26.1 °F 53% 29.74 in 10.0 mi WNW 12.7 mph - N/A   Clear
5:56 AM 41.0 °F 34.3 °F 25.0 °F 53% 29.78 in 10.0 mi NW 11.5 mph - N/A   Clear
6:56 AM 39.9 °F 33.4 °F 24.1 °F 53% 29.82 in 10.0 mi WNW 10.4 mph - N/A   Scattered Clouds
7:56 AM 39.0 °F 29.0 °F 23.0 °F 53% 29.88 in 10.0 mi NW 20.7 mph 26.5 mph N/A   Clear
8:56 AM 39.9 °F 30.5 °F 15.1 °F 36% 29.94 in 10.0 mi NW 19.6 mph 26.5 mph N/A   Clear
9:56 AM 42.1 °F 33.3 °F 17.1 °F 37% 29.96 in 10.0 mi NW 19.6 mph 28.8 mph N/A   Clear
10:56 AM 43.0 °F 33.5 °F 17.1 °F 35% 29.96 in 10.0 mi NW 24.2 mph 32.2 mph N/A   Clear
11:56 AM 46.0 °F 37.6 °F 15.1 °F 29% 29.98 in 10.0 mi NW 24.2 mph 33.4 mph N/A   Clear
12:56 PM 46.0 °F 38.5 °F 17.1 °F 31% 29.99 in 10.0 mi NNW 19.6 mph 27.6 mph N/A   Partly Cloudy
1:56 PM 46.9 °F - 17.1 °F 30% 29.99 in 10.0 mi NW 19.6 mph 25.3 mph N/A   Partly Cloudy
2:56 PM 48.0 °F - 18.0 °F 30% 29.99 in 10.0 mi WNW 19.6 mph 28.8 mph N/A   Mostly Cloudy
3:56 PM 46.9 °F - 14.0 °F 27% 30.01 in 10.0 mi WNW 21.9 mph 34.5 mph N/A   Clear
4:56 PM 48.0 °F - 12.0 °F 24% 30.03 in 10.0 mi NW 27.6 mph 33.4 mph N/A   Clear
5:56 PM 46.9 °F - 10.0 °F 22% 30.06 in 10.0 mi NW 17.3 mph - N/A   Clear
6:56 PM 45.0 °F 38.9 °F 10.0 °F 24% 30.10 in 10.0 mi NNW 12.7 mph - N/A   Clear
7:56 PM 42.1 °F 37.1 °F 12.9 °F 31% 30.15 in 10.0 mi NNW 8.1 mph - N/A   Clear
8:56 PM 37.9 °F 34.4 °F 16.0 °F 41% 30.19 in 10.0 mi NNW 4.6 mph - N/A   Clear
9:56 PM 36.0 °F - 19.9 °F 52% 30.22 in 10.0 mi Calm Calm - N/A   Clear
10:56 PM 32.0 °F - 25.0 °F 75% 30.24 in 10.0 mi Calm Calm - N/A   Clear
11:56 PM 30.0 °F - 21.9 °F 72% 30.26 in 10.0 mi Calm Calm - N/A   Clear